Hourly Weather Dubrovino

Today, 27 September, Sunday

Time Temperature Precipitation Wind Pressure Humidity
00:00 +15°C° 0 mm 6 mps 741 mmHg 61%
01:00 +15°C° 0 mm 6 mps 741 mmHg 59%
02:00 +15°C° 0 mm 6 mps 741 mmHg 57%
03:00 +14°C° 0 mm 6 mps 741 mmHg 57%
04:00 +14°C° 0 mm 6 mps 741 mmHg 56%
05:00 +13°C° 0 mm 6 mps 741 mmHg 55%
06:00 +14°C° 0 mm 6 mps 742 mmHg 57%
07:00 +14°C° 0 mm 7 mps 742 mmHg 59%
08:00 +14°C° 0 mm 7 mps 742 mmHg 60%
09:00 +15°C° 0 mm 7 mps 742 mmHg 58%
10:00 +16°C° 0 mm 8 mps 742 mmHg 56%
11:00 +18°C° 0 mm 8 mps 742 mmHg 54%
12:00 +18°C° 0 mm 8 mps 742 mmHg 54%
13:00 +20°C° 0 mm 8 mps 743 mmHg 55%
14:00 +20°C° 0 mm 8 mps 743 mmHg 55%
15:00 +18°C° 0 mm 8 mps 743 mmHg 58%
16:00 +17°C° 0 mm 7 mps 743 mmHg 60%
17:00 +17°C° 0 mm 7 mps 743 mmHg 62%
18:00 +16°C° 0.1 mm 7 mps 743 mmHg 62%
19:00 +16°C° 0.1 mm 6 mps 743 mmHg 63%
20:00 +15°C° 0.1 mm 6 mps 743 mmHg 63%
21:00 +15°C° 0.2 mm 6 mps 743 mmHg 67%
22:00 +14°C° 0.2 mm 6 mps 743 mmHg 71%
23:00 +13°C° 0.2 mm 6 mps 743 mmHg 74%

Tomorrow, 28 September, Monday

Time Temperature Precipitation Wind Pressure Humidity
00:00 +13°C° 1.3 mm 6 mps 743 mmHg 80%
01:00 +13°C° 1.3 mm 6 mps 743 mmHg 86%
02:00 +11°C° 1.3 mm 6 mps 742 mmHg 92%
03:00 +13°C° 1.4 mm 5 mps 742 mmHg 93%
04:00 +13°C° 1.4 mm 5 mps 742 mmHg 94%
05:00 +13°C° 1.4 mm 5 mps 742 mmHg 95%
06:00 +13°C° 0.7 mm 5 mps 742 mmHg 94%
07:00 +14°C° 0.7 mm 5 mps 743 mmHg 93%
08:00 +14°C° 0.7 mm 4 mps 743 mmHg 92%
09:00 +13°C° 0.5 mm 5 mps 744 mmHg 92%
10:00 +13°C° 0.5 mm 5 mps 744 mmHg 91%
11:00 +13°C° 0.5 mm 5 mps 744 mmHg 90%
12:00 +12°C° 0.9 mm 5 mps 745 mmHg 90%
13:00 +11°C° 0.9 mm 6 mps 745 mmHg 90%
14:00 +10°C° 0.9 mm 6 mps 745 mmHg 90%
15:00 +10°C° 0.8 mm 5 mps 746 mmHg 90%
16:00 +11°C° 0.8 mm 4 mps 746 mmHg 90%
17:00 +11°C° 0.8 mm 3 mps 746 mmHg 90%
18:00 +11°C° 0.1 mm 3 mps 746 mmHg 89%
19:00 +11°C° 0.1 mm 3 mps 747 mmHg 88%
20:00 +11°C° 0.1 mm 3 mps 747 mmHg 87%
21:00 +11°C° 0 mm 3 mps 747 mmHg 87%
22:00 +11°C° 0 mm 3 mps 747 mmHg 87%
23:00 +11°C° 0 mm 3 mps 748 mmHg 87%

Day after tomorrow, 29 September, Tuesday

Time Temperature Precipitation Wind Pressure Humidity
00:00 +10°C° 0 mm 3 mps 748 mmHg 88%
01:00 +10°C° 0 mm 2 mps 748 mmHg 89%
02:00 +9°C° 0 mm 2 mps 748 mmHg 90%
03:00 +9°C° 0 mm 2 mps 747 mmHg 90%
04:00 +8°C° 0 mm 2 mps 747 mmHg 90%
05:00 +8°C° 0 mm 2 mps 747 mmHg 91%
06:00 +9°C° 0 mm 2 mps 747 mmHg 88%
07:00 +10°C° 0 mm 2 mps 747 mmHg 86%
08:00 +10°C° 0 mm 2 mps 747 mmHg 83%
09:00 +13°C° 0 mm 2 mps 747 mmHg 78%
10:00 +14°C° 0 mm 2 mps 747 mmHg 73%
11:00 +16°C° 0 mm 2 mps 747 mmHg 68%
12:00 +17°C° 0 mm 2 mps 747 mmHg 67%
13:00 +17°C° 0 mm 3 mps 747 mmHg 66%
14:00 +18°C° 0 mm 3 mps 746 mmHg 65%
15:00 +17°C° 0 mm 3 mps 746 mmHg 71%
16:00 +16°C° 0 mm 3 mps 746 mmHg 76%
17:00 +14°C° 0 mm 3 mps 745 mmHg 81%
18:00 +13°C° 0 mm 3 mps 745 mmHg 85%
19:00 +13°C° 0 mm 3 mps 745 mmHg 89%
20:00 +12°C° 0 mm 3 mps 745 mmHg 92%
21:00 +12°C° 0 mm 3 mps 745 mmHg 90%
22:00 +11°C° 0 mm 3 mps 745 mmHg 87%
23:00 +11°C° 0 mm 3 mps 745 mmHg 84%

30 September, Wednesday

Time Temperature Precipitation Wind Pressure Humidity
00:00 +11°C° 0 mm 3 mps 744 mmHg 82%
01:00 +11°C° 0 mm 3 mps 744 mmHg 79%
02:00 +11°C° 0 mm 3 mps 744 mmHg 77%
03:00 +11°C° 0 mm 3 mps 744 mmHg 78%
04:00 +10°C° 0 mm 4 mps 744 mmHg 79%
05:00 +8°C° 0 mm 4 mps 744 mmHg 80%
06:00 +10°C° 0 mm 4 mps 744 mmHg 77%
07:00 +10°C° 0 mm 4 mps 744 mmHg 74%
08:00 +11°C° 0 mm 4 mps 744 mmHg 72%
09:00 +12°C° 0 mm 4 mps 744 mmHg 71%
10:00 +12°C° 0 mm 4 mps 744 mmHg 70%
11:00 +13°C° 0 mm 4 mps 744 mmHg 70%
12:00 +14°C° 0 mm 4 mps 744 mmHg 69%
13:00 +14°C° 0 mm 4 mps 743 mmHg 68%
14:00 +14°C° 0 mm 4 mps 743 mmHg 67%
15:00 +14°C° 0 mm 4 mps 743 mmHg 67%
16:00 +13°C° 0 mm 4 mps 743 mmHg 68%
17:00 +13°C° 0 mm 4 mps 744 mmHg 69%
18:00 +12°C° 0 mm 4 mps 744 mmHg 70%
19:00 +11°C° 0 mm 4 mps 744 mmHg 71%
20:00 +10°C° 0 mm 4 mps 744 mmHg 72%
21:00 +10°C° 0 mm 4 mps 744 mmHg 70%
22:00 +10°C° 0 mm 4 mps 744 mmHg 67%
23:00 +10°C° 0 mm 4 mps 744 mmHg 64%

1 October, Thursday

Time Temperature Precipitation Wind Pressure Humidity
00:00 +8°C° 0 mm 4 mps 744 mmHg 64%
01:00 +8°C° 0 mm 4 mps 744 mmHg 63%
02:00 +8°C° 0 mm 4 mps 743 mmHg 63%
03:00 +7°C° 0 mm 4 mps 744 mmHg 63%
04:00 +7°C° 0 mm 4 mps 744 mmHg 63%
05:00 +7°C° 0 mm 4 mps 744 mmHg 63%
06:00 +8°C° 0 mm 5 mps 744 mmHg 63%
07:00 +8°C° 0 mm 5 mps 744 mmHg 63%
08:00 +9°C° 0 mm 5 mps 744 mmHg 63%
09:00 +10°C° 0 mm 6 mps 743 mmHg 60%
10:00 +13°C° 0 mm 6 mps 743 mmHg 57%
11:00 +15°C° 0 mm 7 mps 743 mmHg 55%
12:00 +15°C° 0 mm 7 mps 743 mmHg 55%
13:00 +15°C° 0 mm 7 mps 743 mmHg 56%
14:00 +15°C° 0 mm 7 mps 743 mmHg 57%
15:00 +14°C° 0 mm 6 mps 743 mmHg 63%
16:00 +13°C° 0 mm 6 mps 744 mmHg 69%
17:00 +10°C° 0 mm 6 mps 744 mmHg 75%
18:00 +10°C° 0 mm 5 mps 744 mmHg 73%
19:00 +10°C° 0 mm 5 mps 744 mmHg 70%
20:00 +10°C° 0 mm 5 mps 744 mmHg 68%
21:00 +11°C° 0 mm 4 mps 744 mmHg 70%
22:00 +11°C° 0 mm 4 mps 744 mmHg 72%
23:00 +10°C° 0 mm 4 mps 744 mmHg 73%

2 October, Friday

Time Temperature Precipitation Wind Pressure Humidity
00:00 +10°C° 0 mm 4 mps 744 mmHg 74%
01:00 +10°C° 0 mm 4 mps 744 mmHg 74%
02:00 +8°C° 0 mm 4 mps 744 mmHg 75%
03:00 +8°C° 0 mm 4 mps 744 mmHg 75%
04:00 +9°C° 0 mm 3 mps 744 mmHg 76%
05:00 +9°C° 0 mm 3 mps 744 mmHg 76%
06:00 +8°C° 0 mm 4 mps 744 mmHg 73%
07:00 +10°C° 0 mm 4 mps 744 mmHg 70%
08:00 +10°C° 0 mm 5 mps 744 mmHg 66%
09:00 +12°C° 0 mm 5 mps 744 mmHg 64%
10:00 +13°C° 0 mm 5 mps 744 mmHg 62%
11:00 +14°C° 0 mm 5 mps 744 mmHg 60%
12:00 +14°C° 0 mm 5 mps 745 mmHg 60%
13:00 +14°C° 0 mm 5 mps 745 mmHg 60%
14:00 +14°C° 0 mm 5 mps 745 mmHg 60%
15:00 +14°C° 0 mm 5 mps 745 mmHg 63%
16:00 +13°C° 0 mm 4 mps 745 mmHg 65%
17:00 +13°C° 0 mm 4 mps 745 mmHg 67%
18:00 +12°C° 0 mm 4 mps 745 mmHg 70%
19:00 +11°C° 0 mm 4 mps 745 mmHg 72%
20:00 +10°C° 0 mm 4 mps 746 mmHg 75%
21:00 +10°C° 0 mm 4 mps 746 mmHg 78%
22:00 +10°C° 0 mm 4 mps 746 mmHg 80%
23:00 +9°C° 0 mm 3 mps 746 mmHg 83%
Show more